| time (UTC) | temp F | wind direction | speed MPH | gust MPH | rain 1hr in | rain 24hr in | rain mn in | humidity % | barometer mb |
| 20260506233209 | 45 | 215 | 5.0 | 0.0 | 0.00 | 0.00 | 0.00 | 91 | 1010.9 |
| 20260506230209 | 46 | 171 | 6.0 | 0.0 | 0.00 | 0.00 | 0.00 | 91 | 1010.8 |
| 20260506223209 | 46 | 198 | 5.0 | 0.0 | 0.00 | 0.00 | 0.00 | 91 | 1010.8 |
| 20260506220209 | 47 | 246 | 7.0 | 0.0 | 0.00 | 0.00 | 0.00 | 91 | 1010.6 |
| 20260506213209 | 47 | 178 | 5.0 | 0.0 | 0.00 | 0.00 | 0.26 | 90 | 1010.4 |
| 20260506210210 | 47 | 251 | 8.0 | 0.0 | 0.00 | 0.00 | 0.26 | 90 | 1010.2 |
| 20260506203210 | 48 | 206 | 9.0 | 0.0 | 0.00 | 0.00 | 0.26 | 90 | 1010.4 |
| 20260506200210 | 48 | 220 | 12.0 | 0.0 | 0.00 | 0.00 | 0.26 | 90 | 1010.1 |
| 20260506193215 | 48 | 283 | 8.0 | 0.0 | 0.00 | 0.00 | 0.26 | 89 | 1009.7 |
| 20260506190211 | 49 | 162 | 14.0 | 0.0 | 0.00 | 0.00 | 0.26 | 89 | 1009.2 |
| 20260506183209 | 50 | 236 | 5.0 | 0.0 | 0.00 | 0.00 | 0.26 | 90 | 1008.6 |
| 20260506180216 | 50 | 211 | 8.0 | 0.0 | 0.00 | 0.00 | 0.26 | 90 | 1008.8 |
| 20260506173210 | 50 | 180 | 11.0 | 0.0 | 0.00 | 0.00 | 0.26 | 90 | 1008.5 |
| 20260506170215 | 50 | 206 | 10.0 | 0.0 | 0.00 | 0.00 | 0.26 | 90 | 1008.0 |
| 20260506163210 | 50 | 254 | 15.0 | 0.0 | 0.00 | 0.00 | 0.25 | 89 | 1007.8 |
| 20260506160210 | 50 | 247 | 15.0 | 0.0 | 0.00 | 0.00 | 0.23 | 88 | 1007.7 |
| 20260506153210 | 53 | 267 | 23.0 | 0.0 | 0.00 | 0.00 | 0.16 | 85 | 1007.4 |
| 20260506150210 | 59 | 205 | 22.0 | 0.0 | 0.00 | 0.00 | 0.13 | 77 | 1006.4 |
| 20260506143210 | 64 | 265 | 6.0 | 0.0 | 0.00 | 0.00 | 0.00 | 60 | 1005.4 |
| 20260506140210 | 65 | 99 | 6.0 | 0.0 | 0.00 | 0.00 | 0.00 | 59 | 1005.4 |
| 20260506133211 | 64 | 307 | 6.0 | 0.0 | 0.00 | 0.00 | 0.00 | 59 | 1005.6 |
| 20260506130211 | 64 | 257 | 6.0 | 0.0 | 0.00 | 0.00 | 0.00 | 60 | 1005.7 |
| 20260506123210 | 63 | 223 | 7.0 | 0.0 | 0.00 | 0.00 | 0.00 | 63 | 1005.5 |
| 20260506120210 | 63 | 121 | 2.0 | 0.0 | 0.00 | 0.00 | 0.00 | 64 | 1005.4 |
| 20260506113217 | 62 | 47 | 2.0 | 0.0 | 0.00 | 0.00 | 0.00 | 64 | 1005.7 |
| 20260506110210 | 60 | 331 | 4.0 | 0.0 | 0.00 | 0.00 | 0.00 | 70 | 1005.9 |
| 20260506100213 | 60 | 336 | 3.0 | 0.0 | 0.00 | 0.00 | 0.00 | 73 | 1006.5 |
| 20260506093211 | 59 | 61 | 3.0 | 0.0 | 0.00 | 0.00 | 0.00 | 73 | 1006.6 |
| 20260506090211 | 58 | 9 | 2.0 | 0.0 | 0.00 | 0.00 | 0.00 | 79 | 1006.4 |
| 20260506083211 | 56 | 340 | 5.0 | 0.0 | 0.00 | 0.00 | 0.00 | 80 | 1006.4 |
| 20260506080212 | 56 | 344 | 4.0 | 0.0 | 0.00 | 0.00 | 0.00 | 81 | 1006.4 |
| 20260506073211 | 55 | 274 | 5.0 | 0.0 | 0.00 | 0.00 | 0.00 | 82 | 1006.7 |
| 20260506070212 | 54 | 165 | 5.0 | 0.0 | 0.00 | 0.00 | 0.00 | 86 | 1006.9 |
| 20260506060210 | 50 | 119 | 2.0 | 0.0 | 0.00 | 0.00 | 0.00 | 93 | 1006.7 |
| 20260506050211 | 45 | 317 | 1.0 | 0.0 | 0.00 | 0.00 | 0.00 | 91 | 1007.0 |
| 20260506043211 | 45 | 309 | 5.0 | 0.0 | 0.00 | 0.00 | 0.00 | 90 | 1007.2 |
| 20260506040211 | 46 | 130 | 3.0 | 0.0 | 0.00 | 0.00 | 0.00 | 90 | 1007.4 |
| 20260506033211 | 47 | 323 | 1.0 | 0.0 | 0.00 | 0.00 | 0.00 | 89 | 1007.7 |
| 20260506030212 | 48 | 211 | 3.0 | 0.0 | 0.00 | 0.00 | 0.00 | 90 | 1007.7 |
| 20260506023211 | 49 | 156 | 1.0 | 0.0 | 0.00 | 0.00 | 0.00 | 88 | 1008.1 |
| 20260506020212 | 50 | 346 | 1.0 | 0.0 | 0.00 | 0.00 | 0.00 | 88 | 1008.1 |
| 20260506013211 | 50 | 270 | 3.0 | 0.0 | 0.00 | 0.00 | 0.00 | 88 | 1008.3 |
| 20260506010213 | 51 | 227 | 8.0 | 0.0 | 0.00 | 0.00 | 0.00 | 88 | 1008.6 |
| 20260506003209 | 51 | 234 | 6.0 | 0.0 | 0.00 | 0.00 | 0.00 | 88 | 1008.4 |
| 20260506000211 | 50 | 200 | 8.0 | 0.0 | 0.00 | 0.00 | 0.00 | 87 | 1008.8 |